Tracking 31011 objects as of 11-Jul-2025
HD Live streaming from Space Station
objects crossing your sky now

CZ-6A DEB

Track CZ-6A DEB now!
10-day predictions


NORAD ID: 56275
Int'l Code: 2022-151ACT
Perigee: 548.7 km
Apogee: 619.3 km
Inclination: 98.6 °
Period: 96.2 minutes
Semi major axis: 6954 km
RCS: Unknown
Launch date: November 11, 2022
Source: People's Republic of China (PRC)
Launch site: Taiyaun Space Center, China (TSC)

Note: This is SATELLITE DEBRIS
Your satellite tracking list
Your tracking list is empty




NASA's NSSDC Master Catalog

Two Line Element Set (TLE):
1 56275U 22151ACT 25191.64960730  .00026738  00000-0  22751-2 0  9994
2 56275  98.6428 253.0686 0050786 199.2992 160.6305 14.96779270 48129
Source of the keplerian elements: AFSPC